Miscellaneous Local Product
Issued by NWS Hastings, NE

Home | Current Version | Previous Version | Graphics & Text | Print | Product List | Glossary On
Versions: 1 2 3 4 5 6 7 8 9 10 11 12 13 14 15 16 17 18 19 20 21 22 23 24 25 26 27 28 29 30 31 32 33 34 35 36 37 38 39 40 41 42 43 44 45 46 47 48 49 50
000
AXUS43 KGID 250002
MISGRI

GID CWA HOURLY WEATHER ROUNDUP
NATIONAL WEATHER SERVICE HASTINGS NE
700 PM CDT FRI APR 24 2015

NOTE: "FAIR" INDICATES FEW OR NO CLOUDS BELOW 12,000 FEET WITH NO
SIGNIFICANT WEATHER AND/OR OBSTRUCTIONS TO VISIBILITY.

...SOUTH CENTRAL NEBRASKA...

CITY           SKY/WX    TMP DP  RH WIND       PRES   REMARKS
GRAND ISLAND   CLOUDY    61  56  83 SE10      29.54F
HASTINGS       CLOUDY    60  56  86 SE13      29.53F
KEARNEY        CLOUDY    63  55  77 SE15      29.53S
ORD            MOSUNNY   69  53  56 SE10      29.50S
YORK           CLOUDY    61  55  82 SE12      29.55F
AURORA         CLOUDY    61  57  87 SE12      29.54F
LEXINGTON      CLOUDY    67  55  65 E9        29.50F
HOLDREGE       PTSUNNY   63  55  74 E15G23    29.52R
HEBRON         CLOUDY    58  56  91 E6        29.55F FOG

...NEBRASKA PANHANDLE...

CITY           SKY/WX    TMP DP  RH WIND       PRES   REMARKS
CHADRON        CLOUDY    63  41  44 NE12G21   29.54F
ALLIANCE       CLOUDY    53  45  74 N10       29.54F
SCOTTSBLUFF    CLOUDY    61  37  41 S16G25    29.58R
SIDNEY         CLOUDY    59  38  45 NW18G32   29.59R

...WESTERN AND NORTH CENTRAL NEBRASKA...

CITY           SKY/WX    TMP DP  RH WIND       PRES   REMARKS
VALENTINE      CLOUDY    73  37  27 SE9       29.47R
AINSWORTH      CLOUDY    67  44  43 SE16      29.50R
ONEILL         CLOUDY    69  54  58 S7        29.50F
BROKEN BOW     MOSUNNY   69  53  56 SE13G24   29.49F
IMPERIAL       CLOUDY    67  40  37 CALM      29.53R
NORTH PLATTE   NOT AVBL
MCCOOK         CLOUDY    67  51  56 E6        29.50S

...EASTERN NEBRASKA...

CITY           SKY/WX    TMP DP  RH WIND       PRES   REMARKS
NORFOLK        PTSUNNY   67  55  65 S16       29.53S
SO SIOUX CITY  MOSUNNY   72  52  49 S16       29.54F
TEKAMAH        CLOUDY    68  52  56 SE18      29.57S
COLUMBUS       PTSUNNY   64  54  68 S15       29.56F
ALBION         MOSUNNY   66  54  65 S15G21    29.52F
OMAHA EPPLEY   CLOUDY    63  51  65 SE18G25   29.59F
OFFUTT AFB     CLOUDY    61  52  72 SE14      29.59F
MILLARD        CLOUDY    62  52  68 SE9       29.60F
LINCOLN        CLOUDY    61  54  77 S9        29.58F
NEBRASKA CITY  CLOUDY    58  51  78 S8        29.60F
BEATRICE       CLOUDY    60  55  83 E7        29.56F
FALLS CITY     CLOUDY    62  54  74 SE8       29.58F

...NORTHERN KANSAS...

CITY           SKY/WX    TMP DP  RH WIND       PRES   REMARKS
GOODLAND       LGT RAIN  63  32  31 NW10G21   29.56R
HILL CITY      CLOUDY    64  55  72 NE14      29.47S
NORTON         PTCLDY    66  54  63 E16       29.48S
HAYS           CLOUDY    57  45  62 E10       29.45R
RUSSELL        TSTM      62  57  83 NE22G29   29.42S
CONCORDIA      PTSUNNY   63  56  78 E10       29.49F
SALINA         CLOUDY    75  60  59 S20G29    29.41F
TOPEKA         PTSUNNY   64  55  72 E12       29.56F



USA.gov is the U.S. government's official web portal to all federal, state and local government web resources and services.